Location: Gleizolles
(44.4833°N, 6.7667°E)
Time: 16:16:45
(UTC+00:00)

Altair - Pass Details

Date: 01 July 2024
Orbit: 1502 x 1681 km, 47.2° (Epoch: 13 July)

Event Time Altitude Azimuth Distance (km) Brightness Sun altitude
Rises 05:51:08 0° 293° (WNW) 4,701 9.6 18.4°
Reaches altitude 10° 05:54:28 10° 286° (WNW) 3,738 9.1 19.0°
Maximum altitude 06:02:44 36° 224° (SW) 2,340 8.3 20.4°
Drops below altitude 10° 06:11:17 10° 163° (SSE) 3,851 9.7 21.9°
Sets 06:14:47 0° 155° (SSE) 4,859 10.3 22.5°
